Regional Weather Roundup
Issued by NWS

Home | Current Version | Previous Version | Graphics & Text | Print | Product List | Glossary On
Versions: 1 2 3 4 5 6 7 8 9 10 11 12 13 14 15 16 17 18 19 20 21 22 23 24 25 26 27 28 29 30 31 32 33 34 35 36 37 38 39 40 41 42 43 44 45 46 47 48 49 50
000
ASUS43 KLMK 200302
RWRKY
KENTUCKY REGIONAL WEATHER ROUNDUP
NATIONAL WEATHER SERVICE LOUISVILLE KY
1100 PM EDT SUN OCT 19 2014

NOTE "FAIR" INDICATES FEW OR NO CLOUDS BELOW 12,000 FEET
WITH NO SIGNIFICANT WEATHER AND/OR OBSTRUCTIONS TO VISIBILITY.

KYZ001>023-026-027-061>063-070>075-200400-
WESTERN AND SOUTH CENTRAL KENTUCKY

CITY           SKY/WX    TMP DP  RH WIND       PRES   REMARKS
PADUCAH        MOCLDY    49  45  86 S6        30.08F FOG
HENDERSON      MOCLDY    45  41  87 CALM      30.09F
OWENSBORO      PTCLDY    48  45  90 CALM      30.09F
HOPKINSVILLE   CLOUDY    51  48  90 SW2       30.10S FOG
BOWLING GREEN  PTCLDY    49  45  86 CALM      30.10F
GLASGOW        MOCLDY    45  45 100 CALM      30.10F
$$

KYZ024-025-028>034-038-045-046-053-200400-
NORTH CENTRAL KENTUCKY

CITY           SKY/WX    TMP DP  RH WIND       PRES   REMARKS
LOUISVILLE/SDF MOCLDY    51  43  74 SE5       30.08F
LOUISVILLE/LOU MOCLDY    47  42  83 CALM      30.09F
FORT KNOX      MOCLDY    45  43  93 S2        30.07F
$$

KYZ035>037-039>044-047>052-055>060-089>105-200400-
NORTHEAST KENTUCKY

CITY           SKY/WX    TMP DP  RH WIND       PRES   REMARKS
LEXINGTON      PTCLDY    50  40  68 SE3       30.08F
COVINGTON      MOCLDY    42  39  89 S3        30.07F
FRANKFORT      MOCLDY    44  41  89 CALM      30.08S
$$

KYZ054-064>069-076>088-106>120-200400-
SOUTHEAST KENTUCKY

CITY           SKY/WX    TMP DP  RH WIND       PRES   REMARKS
JACKSON        MOCLDY    48  39  71 S5        30.10F
LONDON         MOCLDY    46  42  86 CALM      30.11F
SOMERSET       PTCLDY    43  43 100 CALM      30.12F
MIDDLESBORO    MOCLDY    44  43  97 CALM      30.14S
MONTICELLO     FOG       42  42 100 CALM      30.13F VSB 1
$$




USA.gov is the U.S. government's official web portal to all federal, state and local government web resources and services.